Date String (YYYY-MM-DD hh:mm:ss) UTC,Instrument flags,Ambient pressure (hPa),Sample flow (lpm),Bypass flow (lpm),Sample temperature (°C),Ambient temperature (°C),ASC tube jacket temperature (°C),LED temperature (°C),Box temperature (°C),Sample RH (%),Span deviation,Mass concentration (μg/m³),Mass concentration (μg/m³),Mass concentration (μg/m³)
DateTimeUTC,F1_M11,P_M11,Q1_M11,Q2_M11,T1_M11,T2_M11,T3_M11,T4_M11,T5_M11,U1_M11,ZSPAN_M11,X2_M11,X0_M11,X1_M11
2022-04-06 23:00:00,,0829.4,4.99,0.00,21.9,21.2,00.0,30.9,23.7,04.5,0000.0,0000.84,0004.97,0000.47
2022-04-06 23:01:00,,0829.6,5.00,0.00,21.9,21.2,00.0,30.9,23.7,04.5,0000.0,0000.87,0005.04,0000.46
2022-04-06 23:02:00,,0829.6,5.00,0.00,21.9,21.2,00.0,30.9,23.7,04.7,0000.0,0000.93,0004.74,0000.47
2022-04-06 23:03:00,,0829.5,5.00,0.00,21.9,21.2,00.0,30.9,23.7,04.6,0000.0,0000.95,0004.44,0000.48
2022-04-06 23:04:00,,0829.5,5.00,0.00,21.9,21.2,00.0,30.9,23.7,04.6,0000.0,0000.92,0004.38,0000.48
2022-04-06 23:05:00,,0829.5,4.99,0.00,21.9,21.2,00.0,30.9,23.7,04.6,0000.0,0000.91,0004.47,0000.48
2022-04-06 23:06:00,,0829.5,5.00,0.00,21.9,21.2,00.0,30.9,23.7,04.6,0000.0,0000.91,0004.81,0000.48
2022-04-06 23:07:00,,0829.5,5.00,0.00,21.9,21.2,00.0,30.9,23.7,04.4,0000.0,0000.97,0003.91,0000.49
2022-04-06 23:08:00,,0829.5,5.00,0.00,21.9,21.2,00.0,30.9,23.7,04.5,0000.0,0001.00,0003.57,0000.49
2022-04-06 23:09:00,,0829.5,5.01,0.00,21.9,21.2,00.0,30.9,23.6,04.6,0000.0,0001.01,0003.59,0000.50
2022-04-06 23:10:00,,0829.5,4.98,0.00,21.9,21.2,00.0,30.9,23.6,04.7,0000.0,0001.04,0003.74,0000.49
2022-04-06 23:11:00,,0829.5,5.00,0.00,21.9,21.2,00.0,30.9,23.6,04.7,0000.0,0001.03,0003.80,0000.48
2022-04-06 23:12:00,,0829.5,5.00,0.00,21.9,21.2,00.0,30.9,23.6,04.4,0000.0,0000.98,0003.84,0000.48
2022-04-06 23:13:00,,0829.5,5.00,0.00,21.9,21.1,00.0,30.9,23.6,04.4,0000.0,0000.92,0003.53,0000.47
2022-04-06 23:14:00,,0829.5,5.00,0.00,21.9,21.1,00.0,30.9,23.6,04.4,0000.0,0000.91,0003.25,0000.46
2022-04-06 23:15:00,,0829.5,5.00,0.00,21.9,21.1,00.0,30.9,23.6,04.5,0000.0,0000.91,0003.58,0000.46
2022-04-06 23:16:00,,0829.5,4.99,0.00,21.9,21.1,00.0,30.9,23.6,04.7,0000.0,0000.93,0004.28,0000.44
2022-04-06 23:17:00,,0829.5,5.00,0.00,21.9,21.1,00.0,30.9,23.6,04.8,0000.0,0000.93,0003.70,0000.44
2022-04-06 23:18:00,,0829.5,5.01,0.00,21.9,21.1,00.0,30.9,23.6,05.0,0000.0,0000.89,0003.44,0000.44
2022-04-06 23:19:00,,0829.5,5.01,0.00,21.9,21.1,00.0,30.9,23.6,05.0,0000.0,0000.84,0003.39,0000.44
2022-04-06 23:20:00,,0829.4,4.98,0.00,21.9,21.1,00.0,30.9,23.6,05.2,0000.0,0000.80,0003.31,0000.43
2022-04-06 23:21:00,,0829.5,5.00,0.00,21.9,21.1,00.0,30.9,23.6,05.1,0000.0,0000.78,0003.22,0000.43
2022-04-06 23:22:00,,0829.5,5.00,0.00,21.9,21.1,00.0,30.9,23.6,05.0,0000.0,0000.76,0003.94,0000.44
2022-04-06 23:23:00,,0829.5,5.00,0.00,21.9,21.1,00.0,30.9,23.6,05.0,0000.0,0000.76,0003.97,0000.45
2022-04-06 23:24:00,,0829.5,5.00,0.00,21.9,21.1,00.0,30.9,23.6,05.0,0000.0,0000.79,0003.95,0000.44
2022-04-06 23:25:00,,0829.5,5.00,0.00,21.8,21.1,00.0,30.9,23.5,05.1,0000.0,0000.77,0003.74,0000.45
2022-04-06 23:26:00,,0829.3,5.00,0.00,21.8,21.1,00.0,30.9,23.6,05.1,0000.0,0000.78,0003.46,0000.44
2022-04-06 23:27:00,,0829.3,5.01,0.00,21.8,21.1,00.0,30.9,23.5,05.0,0000.0,0000.77,0002.61,0000.44
2022-04-06 23:28:00,,0829.4,4.98,0.00,21.8,21.1,00.0,30.9,23.5,04.9,0000.0,0000.84,0002.93,0000.45
2022-04-06 23:29:00,,0829.3,5.01,0.00,21.8,21.1,00.0,30.8,23.5,04.9,0000.0,0000.85,0003.90,0000.45
2022-04-06 23:30:00,,0829.5,5.00,0.00,21.7,21.0,00.0,30.8,23.4,05.0,0000.0,0000.85,0004.50,0000.45
2022-04-06 23:31:00,,0829.5,5.01,0.00,21.7,21.0,00.0,30.8,23.4,05.1,0000.0,0000.89,0004.60,0000.45
2022-04-06 23:32:00,,0829.5,5.00,0.00,21.7,21.0,00.0,30.8,23.4,05.2,0000.0,0000.91,0004.62,0000.45
2022-04-06 23:33:00,,0829.5,5.00,0.00,21.7,21.0,00.0,30.8,23.4,05.2,0000.0,0000.93,0003.90,0000.45
2022-04-06 23:34:00,,0829.6,4.99,0.00,21.7,21.0,00.0,30.8,23.4,05.2,0000.0,0000.98,0003.72,0000.44
2022-04-06 23:35:00,,0829.6,4.99,0.00,21.7,21.0,00.0,30.8,23.4,05.0,0000.0,0001.00,0003.75,0000.45
2022-04-06 23:36:00,,0829.6,5.00,0.00,21.7,21.0,00.0,30.8,23.3,05.1,0000.0,0001.02,0004.17,0000.45
2022-04-06 23:37:00,,0829.5,5.01,0.00,21.7,20.9,00.0,30.8,23.4,05.1,0000.0,0001.04,0004.19,0000.45
2022-04-06 23:38:00,,0829.6,4.99,0.00,21.7,21.0,00.0,30.8,23.4,04.8,0000.0,0001.05,0004.20,0000.46
2022-04-06 23:39:00,,0829.6,4.99,0.00,21.7,21.0,00.0,30.7,23.4,04.9,0000.0,0001.00,0003.94,0000.44
2022-04-06 23:40:00,,0829.7,5.00,0.00,21.7,21.0,00.0,30.7,23.4,05.0,0000.0,0001.01,0003.19,0000.44
2022-04-06 23:41:00,,0829.6,5.00,0.00,21.7,21.0,00.0,30.7,23.4,05.0,0000.0,0001.06,0002.48,0000.46
2022-04-06 23:42:00,,0829.6,5.01,0.00,21.7,21.0,00.0,30.7,23.4,05.0,0000.0,0001.05,0002.45,0000.46
2022-04-06 23:43:00,,0829.8,5.00,0.00,21.7,21.0,00.0,30.7,23.4,04.8,0000.0,0001.07,0002.62,0000.46
2022-04-06 23:44:00,,0829.8,5.01,0.00,21.7,21.1,00.0,30.7,23.5,04.8,0000.0,0001.05,0002.63,0000.46
2022-04-06 23:45:00,,0829.8,4.98,0.00,21.7,21.1,00.0,30.7,23.5,04.9,0000.0,0001.00,0002.54,0000.46
2022-04-06 23:46:00,,0829.8,5.01,0.00,21.7,21.1,00.0,30.7,23.5,04.9,0000.0,0000.94,0002.31,0000.45
2022-04-06 23:47:00,,0829.9,5.00,0.00,21.7,21.1,00.0,30.7,23.6,04.9,0000.0,0000.94,0002.00,0000.45
2022-04-06 23:48:00,,0829.8,5.01,0.00,21.7,21.1,00.0,30.7,23.5,05.0,0000.0,0000.95,0002.06,0000.45
2022-04-06 23:49:00,,0829.9,4.99,0.00,21.7,21.1,00.0,30.7,23.5,04.8,0000.0,0000.94,0002.07,0000.45
2022-04-06 23:50:00,,0829.9,5.00,0.00,21.7,21.1,00.0,30.7,23.5,04.5,0000.0,0000.95,0002.09,0000.46
2022-04-06 23:51:00,,0830.0,5.00,0.00,21.7,21.1,00.0,30.7,23.5,05.0,0000.0,0000.98,0002.15,0000.47
2022-04-06 23:52:00,,0830.1,5.01,0.00,21.7,21.1,00.0,30.7,23.5,04.7,0000.0,0000.95,0002.05,0000.46
2022-04-06 23:53:00,,0830.1,4.98,0.00,21.7,21.1,00.0,30.7,23.5,04.8,0000.0,0000.92,0001.99,0000.46
2022-04-06 23:54:00,,0829.9,5.00,0.00,21.7,21.1,00.0,30.7,23.5,04.7,0000.0,0000.90,0001.85,0000.45
2022-04-06 23:55:00,,0830.0,5.01,0.00,21.8,21.1,00.0,30.7,23.5,04.6,0000.0,0000.90,0001.81,0000.46
2022-04-06 23:56:00,,0830.0,5.01,0.00,21.8,21.0,00.0,30.7,23.5,04.6,0000.0,0000.91,0001.84,0000.46
2022-04-06 23:57:00,,0830.0,5.00,0.00,21.8,21.1,00.0,30.7,23.6,04.6,0000.0,0000.92,0001.86,0000.47
2022-04-06 23:58:00,,0830.0,4.99,0.00,21.8,21.1,00.0,30.7,23.6,04.5,0000.0,0000.91,0001.85,0000.48
2022-04-06 23:59:00,,0830.0,5.00,0.00,21.8,21.0,00.0,30.7,23.5,04.7,0000.0,0000.87,0001.72,0000.47
